Showing default

SYNCOM 2 (A 26), 634

Orbit data source: Space-Track

SYNCOM 2 (A 26), 634 is a payload satellite owned by GSFC (US) in GEO that was launched on Fri, 26 Jul 1963 UTC via a THOR DELTA B launch vehicle from the Air Force Eastern Test Range (AFETR). Payload-class satellites include a variety of spacecraft equipped with specific instruments for various scientific and technological missions. These include communications satellites like Starlink; space stations such as the ISS; scientific satellites like the Hubble; Earth observation satellites from companies like Planet Labs, Umbra, and HawkEye 360; GPS; miniature CubeSats for education and research; and military/defense satellites.

Not visible in the next 10 days
Identifier
634, 1963-031A
Orbit
GEO
Country
Flag of USUS
Related business
Manufacturer
Hughes
Mission
Non-operational Civil Communications
Bus & Motor
HS-301, JPL SR-12-1
Mass
66 kg wet, ~30 kg dry
Launch date (UTC)
1963-07-26 (62 years ago)
Launch vehicle
THOR DELTA B
Launch site
Air Force Eastern Test Range (AFETR)
Object type
Payload
Rocket body
Debris
Shape & HBR
Cyl, 0.4 m
Radar Cross Section
0.415 m², Large (>1 m²)

Expand to show TLE details & history
Last TLE update: 2 days ago

TLE from 2 days ago
0 SYNCOM 2 (A 26)
1 00634U 63031A   25256.73802015 -.00000170  00000-0  00000-0 0  9991
2 00634  30.5783 304.3554 0008911 205.2746 194.2265  1.00264633227599
Epoch: 2025-09-13T17:42Z
TLE epoch observation values (Epoch: 2025-09-13T17:42:44.94Z)
Latitude
18.8599°
Longitude
81.03167°
Altitude
35,824.688 km
Speed
3.072 km/s
True Right ascension
22h 38m 44s
True Declination
18° 50' 32"
Sunlit
Object was in daylight at epoch
Visualization orbit readout
Latitude
Unknown
Longitude
Unknown
Altitude
Unknown
Speed
Unknown
Apparent Right ascension
Unknown
Apparent Declination
Unknown
Sunlit
N/A
Visualization observer readout
Local Sidereal Time
11:43:37
Azimuth
Unknown
Elevation
Unknown
Doppler factor
Unknown
Orbital elements
Apogee altitude
35,826.84 km
Perigee altitude
35,751.69 km
Semi-major axis
42,167.402 km
Eccentricity
0.00089
Inclination
30.5783°
RAAN
304.3554°
Arg. of periapsis
205.2746°
True anomaly
194.20143°
Mean anomaly
194.2265°
Eccentric anomaly
194.21396°
Mean motion
0.25066 °/min
Orbital period
1,436.23 mins
BSTAR
0
Loading maneuver chart data...
Computing Atmospheric mass density...
Loading historical data...
Loading historical data...
Loading historical data...
Loading historical data...
Loading historical data...
Loading historical data...
Loading historical data...
Other satellites on launch #31 in the year 1963 (1963-07-26 UTC)

Documentation

Showing up to 5 results
|